Regional Weather Roundup
Issued by NWS

Home | Current Version | Previous Version | Text Only | Print | Product List | Glossary On
Versions: 1 2 3 4 5 6 7 8 9 10 11 12 13 14 15 16 17 18 19 20 21 22 23 24 25 26 27 28 29 30 31 32 33 34 35 36 37 38 39 40 41 42 43 44 45 46 47 48 49 50
000
ASUS44 KEWX 221510
RWRTX
SOUTH TEXAS REGIONAL WEATHER ROUNDUP
NATIONAL WEATHER SERVICE AUSTIN/SAN ANTONIO TX
1000 AM CDT MON SEP 22 2014

NOTE: "FAIR" INDICATED FEW OR NO CLOUDS BELOW 12,000 FEET WITH NO
SIGNIFICANT WEATHER AND/OR OBSTRUCTIONS TO VISIBILITY.

* - THESE STATIONS ARE NOT NWS OR FAA STATIONS...AND ARE NOT SUBJECT
    TO NWS AND FAA QUALITY CONTROL.

TXZ171-172-183>190-221600-
TEXAS HILL COUNTRY AND EDWARDS PLATEAU

CITY           SKY/WX    TMP DP  RH WIND       PRES   REMARKS
JUNCTION       PTSUNNY   72  64  76 CALM      30.21R
*LLANO         MOSUNNY   79  68  69 CALM      30.22R
BURNET         MOSUNNY   80  65  59 NE9       30.21R
*HORSESHOE BAY MOSUNNY   75  67  77 CALM      30.18R
*KERRVILLE     SUNNY     73  67  80 CALM      30.20R
*FREDERICKSBRG MOSUNNY   71  66  83 CALM      30.20R
*ROCKSPRINGS   PTSUNNY   75  66  73 CALM      30.24S
*BOERNE STAGE  SUNNY     79  64  61 N5        30.18S
*CASTROVILLE   SUNNY     82  66  57 N5        30.16R
HONDO          SUNNY     82  66  58 N7        30.16S
*UVALDE        SUNNY    N/A N/A N/A NE5       30.16S
DEL RIO        MOSUNNY   80  68  66 SE7       30.16R
LAUGHLIN AFB   MOSUNNY   79  68  69 S6        30.17R
CARRIZO SPRGS  MOSUNNY   77  70  78 NE6       30.13R
$$

TXZ173-191>194-202-209-217>225-228-221600-
CENTRAL AND SOUTH CENTRAL TEXAS

CITY           SKY/WX    TMP DP  RH WIND       PRES   REMARKS
GEORGETOWN     SUNNY     79  68  69 NE9       30.16R
AUSTIN/BERGSTM PTSUNNY   81  68  64 N8        30.13S
AUSTIN/MABRY   SUNNY     82  68  62 VRB3      30.15S
*AUSTIN/EXEC   SUNNY     79  68  69 N8        30.15R
*LAGO VISTA    SUNNY     80  65  60 NE6       30.18R
SAN MARCOS     MOSUNNY   81  66  61 N14       30.15R
NEW BRAUNFELS  SUNNY     83  67  58 NE9       30.12S
RANDOLPH AFB   SUNNY     80  66  63 N7        30.14R
PT SAN ANTONIO SUNNY     83  66  56 N2        30.12R
SAN ANTONIO    PTSUNNY   84  66  54 N6        30.14S
STINSON FIELD  MOSUNNY   83  66  56 N6        30.12R
*PLEASANTON    MOSUNNY   80  67  64 N7        30.13R HAZE
*LA GRANGE     MOSUNNY   80  72  76 N5        30.10R
*GIDDINGS      MOSUNNY   81  67  64 N5        30.16S
*GONZALES      MOSUNNY   82  70  68 NE9       30.12R
$$

TXZ163>164-176>182-195>201-210>213-226-227-235-221600-
SOUTHEAST TEXAS

CITY           SKY/WX    TMP DP  RH WIND       PRES   REMARKS
COLLEGE STN    MOSUNNY   79  70  74 NE13      30.11S
*BRYAN         MOSUNNY  N/A N/A N/A NE7       30.12R
*CALDWELL      MOSUNNY   77  70  78 NE8       30.15S
*CROCKETT      MOSUNNY   81  70  69 NE13      30.16R
*BRENHAM       MOSUNNY   81  71  72 N7        30.12R
HUNTSVILLE     MOSUNNY   79  70  74 NE7       30.12R
CONROE         PTSUNNY   76  71  85 N7        30.10R
HOUSTON BUSH   MOSUNNY   84  70  62 VRB3      30.08S
HOUSTON HOBBY  MOSUNNY   85  72  65 VRB5      30.08R HX  91
*HOUSTON SW AP SUNNY     73  65  74 N6        30.09S
PEARLAND       SUNNY     85  72  65 N3        30.09R HX  91
HOUSTON HOOKS  SUNNY     82  71  69 NE5       30.09R
ELLINGTON FLD  MOSUNNY   84  77  79 N5        30.09R HX  94
SUGAR LAND     SUNNY     84  72  67 NE5       30.08S
*HOUSTON EXEC  SUNNY     81  81 100 N3        30.11R HX  91
*CLEVELAND MUN SUNNY     80  73  81 NE3       30.10S
*WHARTON       SUNNY     81  71  71 N7        30.10S
$$

TXZ214>216-236>238-221600-
THE UPPER TEXAS COAST

CITY           SKY/WX    TMP DP  RH WIND       PRES   REMARKS
*ORANGE        SUNNY     81  78  92 NE5       30.09S
PORT ARTHUR    SUNNY     84  71  65 N7        30.07S
GALVESTON      SUNNY     84  76  76 N8        30.07S HX  93
ANGLETON       SUNNY     82  74  76 NE5       30.08R
*BAY CITY      SUNNY     82  75  78 NE6       30.08S
PALACIOS       SUNNY     82  73  74 N8        30.08R
$$

TXZ229>234-239>247-221600-
TEXAS COASTAL BEND AND RIO GRANDE PLAINS

CITY           SKY/WX    TMP DP  RH WIND       PRES   REMARKS
VICTORIA       SUNNY     83  73  72 N7        30.09S
*BEEVILLE      SUNNY     82  70  68 MISG      30.10R
ROCKPORT       SUNNY     83  73  72 NE12      30.07R
*PORT ARANSAS  SUNNY     82  75  80 N14       30.06S
*PORT LAVACA   SUNNY     80  72  76 NE7       30.08S
*INGLESIDE     SUNNY     83  74  73 NE12      30.07R HX  90
CORPUS CHRISTI PTSUNNY   81  74  79 NE13      30.07R
CORPUS NAS     PTSUNNY   83  77  82 NE16      30.06R HX  92
*ROBSTOWN      SUNNY     81  74  80 NE9       30.08R
ALICE          SUNNY     80  74  81 N12       30.08R
KINGSVILLE NAS CLOUDY    77  77 100 NE10      30.07R
COTULLA        MOSUNNY   80  70  71 NE7       30.13R
*FAITH RANCH   MOSUNNY   75  70  83 NE6       30.13S
LAREDO         MOSUNNY   79  72  79 NE8       30.14R
$$

TXZ248>255-221600-
DEEP SOUTH TEXAS

CITY           SKY/WX    TMP DP  RH WIND       PRES   REMARKS
BROWNSVILLE    MOSUNNY   85  76  74 NE9       30.01S HX  94
PORT ISABEL    NOT AVBL
*SOUTH PADRE   MOSUNNY   86  77  74 E7        30.01R HX  97
HARLINGEN      PTSUNNY   82  79  89 NE8       30.02R HX  93
*HEBBRONVILLE    N/A     79  72  80 NE10      30.11R
MCALLEN        MOSUNNY   82  75  79 NE7       30.04S
*WESLACO       PTSUNNY   82  75  78 NE10      30.03R
FALFURRIAS     SUNNY    N/A N/A N/A NE10      30.06S
EDINBURG       SUNNY     83  73  71 NE10G16   30.04S
*ZAPATA        SUNNY     82  69  64 NE5       30.09R
$$

TXZ213>215-236>238-242>244-246-247-251-254-255-221600-
CMAN STATIONS

STATION/POSITION TIME  TEMP    WIND        PRES    WAVE
                       AIR SEA DIR/SP/G            HT/PER
                 (UTC) (F)     (DEG/KT/KT) (MB)    (FT/S)
SABINE PASS      1500   80 83   10/ 12/ 13 1018.6
SEA RIM ST PARK  1500   81     360/  5/  6 1018.8
NORTH JETTY/GLS  1500   82 83                N/A
EAGLE POINT      1500   80 83   20/  6/  9 1018.6
MORGANS POINT    1500   81      CALM  /  3 1018.5
MISSION/ARANSAS  1400           30/ 11     1019.0
PORT O`CONNOR    1500           10/ 11/ 12   N/A
PORT ARANSAS     1500   80 83   10/ 13/ 13 1018.6
MALAQUITE BEACH  1500   83 82   50/ 15/ 17 1017.2
BAFFIN BAY       1500   83 79   60/ 13/ 17 1017.5
PORT ISABEL      1500   83 83   60/  6/ 11 1016.6
$$

GMZ080-GMZ150>470-221600-
OFFSHORE BUOY REPORTS

STATION/POSITION TIME  TEMP    WIND        PRES    WAVE
                       AIR SEA DIR/SP/G            HT/PER
                 (UTC) (F)     (DEG/KT/KT) (MB)    (FT/S)
20 E GALVESTON   1500   82 84   20/  8/  8 1017.6    2/ 6
90 E PT ARANSAS  1500   83 84   50/ 14/ 16 1017.6    4/ 6
35 NE PT MANSFLD 1500   83 84   50/ 17/ 19 1016.0    5/ 6
200 E PT ISABEL  1500   81 85  110/ 14/ 16 1015.9    3/ 6
$$



USA.gov is the U.S. government's official web portal to all federal, state and local government web resources and services.